EOS-6 (OCEANSAT-3)

Last updated on Tue Oct 14 2025 00:02:42 GMT+0000 (Coordinated Universal Time)

1 54361U 22158A 25286.64616828 .00000538 00000+0 16010-3 0 9997 2 54361 98.3549 23.1597 0001580 57.6418 302.4928 14.46966379152181
UTC large
Height (km)
Speed (km/s)
/
Latitude / Longitude
Inclination (degrees)
Orbital Period (minutes)
Azimuth
Elevation
Range (km)
Doppler Factor

Next 0 passes for location: London (51.5072 / 0.1276)

Sorry there are no passes over London.